{"data":{"norad_id":64687,"epoch":"2026-09-20T08:42:24.979104Z","epoch_age_seconds":143568,"freshness":"FRESH","line1":"1 64687U 25139Z   26263.36278911  .00016275  00000+0  49177-3 0  9998","line2":"2 64687  53.1591 298.2452 0001517  88.6038 271.5139 15.34400565 70150","mean_motion":15.34400565,"eccentricity":0.0001517,"inclination_deg":53.1591,"raan_deg":298.2452,"arg_perigee_deg":88.6038,"mean_anomaly_deg":271.5139,"bstar":0.00049177,"rev_number":7015,"period_min":93.847723524528,"perigee_km":461.66380569886,"apogee_km":463.73931611824,"semimajor_km":6840.8385609086,"source":"CELESTRAK","updated_at":"2026-09-21T09:00:35.401658Z"}}